Weather History for Dayton, OH

Change the Weather History Date:

Saturday, June 29, 2013

  Actual Average Record
Temperature  
Mean Temperature 69 °F 74 °F  
Max Temperature 77 °F 83 °F 100 °F (1934)
Min Temperature 60 °F 64 °F 49 °F (1905)
Degree Days  
Heating Degree Days 0 0  
Month to date heating degree days 11 22  
Since 1 June heating degree days 11 22  
Since 1 July heating degree days 5457 5642  
Cooling Degree Days 4 9  
Month to date cooling degree days 202 181  
Year to date cooling degree days 333 251  
Since 1 June cooling degree days 202 181  
Growing Degree Days 18 (Base 50)    
Moisture  
Dew Point 63 °F    
Average Humidity 79    
Maximum Humidity 93    
Minimum Humidity 64    
Precipitation  
Precipitation 0.07 in 0.14 in 2.90 in (1995)
Month to date precipitation 3.10 4.04  
Year to date precipitation 17.40 21.08  
Snow  
Snow 0.00 in 0.00 in 0.00 in ()
Month to date snowfall 0.0 0.0  
Since 1 June snowfall 0.0 0.0  
Since 1 July snowfall 36.3 23.3  
Snow Depth 0.00 in    
Sea Level Pressure  
Sea Level Pressure 29.62 in    
Wind  
Wind Speed 5 mph (West)    
Max Wind Speed 14 mph    
Max Gust Speed 18 mph    
Visibility 8 miles    
Events Rain , Thunderstorm    
T = Trace of Precipitation, MM = Missing Value Source: NWS Daily Summary

Daily Weather History Graph

Daily Weather History Graph

Search for Another Location

Airport:

Trip Planner

Search our weather history database for the weather conditions in past years. The results will help you decide how hot, cold, wet, or windy it might be!

Date:

Astronomy

Jun. 29, 2013 Rise Set
Actual Time 6:11 AM EDT 9:09 PM EDT
Civil Twilight 5:38 AM EDT 9:42 PM EDT
Nautical Twilight 4:57 AM EDT 10:23 PM EDT
Astronomical Twilight 4:09 AM EDT 11:11 PM EDT
Moon 12:38 AM EDT (6/29) 1:21 PM EDT (6/29)
Length of Visible Light 16h 03m
Length of Day
14h 58m
Waning Gibbous, 56% of the Moon is Illuminated
Jun 29
Waning Gibbous
Jun 30
Last Quarter
Jul 8
New
Jul 15
First Quarter
Jul 22
Full

Hourly Weather History & Observations

Time (EDT) Temp. Dew Point Humidity Pressure Visibility Wind Dir Wind Speed Gust Speed Precip Events Conditions
12:56 AM 66.0 °F 61.0 °F 84% 29.60 in 10.0 mi WSW 6.9 mph - N/A   Mostly Cloudy
1:56 AM 64.9 °F 60.1 °F 84% 29.59 in 10.0 mi West 5.8 mph - N/A   Overcast
2:56 AM 62.1 °F 60.1 °F 93% 29.58 in 10.0 mi WSW 6.9 mph - N/A   Scattered Clouds
3:56 AM 62.1 °F 60.1 °F 93% 29.58 in 10.0 mi WSW 5.8 mph - N/A   Scattered Clouds
4:56 AM 63.0 °F 61.0 °F 93% 29.59 in 10.0 mi SW 8.1 mph - N/A   Scattered Clouds
5:56 AM 62.1 °F 60.1 °F 93% 29.60 in 10.0 mi WSW 4.6 mph - N/A   Scattered Clouds
6:56 AM 62.1 °F 61.0 °F 96% 29.60 in 5.0 mi WSW 6.9 mph - N/A   Partly Cloudy
7:43 AM 64.4 °F 62.6 °F 94% 29.62 in 7.0 mi SW 5.8 mph - N/A   Mostly Cloudy
7:56 AM 64.0 °F 62.1 °F 93% 29.61 in 7.0 mi SW 4.6 mph - N/A   Mostly Cloudy
8:27 AM 64.4 °F 62.6 °F 94% 29.63 in 2.0 mi WSW 6.9 mph - N/A   Overcast
8:56 AM 64.9 °F 63.0 °F 93% 29.62 in 2.0 mi West 3.5 mph - N/A   Overcast
9:56 AM 66.0 °F 63.0 °F 90% 29.63 in 2.0 mi WSW 3.5 mph - N/A   Overcast
10:53 AM 68.0 °F 62.6 °F 83% 29.64 in 6.0 mi WSW 3.5 mph - N/A   Haze
10:56 AM 68.0 °F 62.1 °F 81% 29.62 in 6.0 mi WSW 4.6 mph - N/A   Haze
11:13 AM 68.0 °F 62.6 °F 83% 29.64 in 6.0 mi SW 3.5 mph - N/A   Haze
11:45 AM 69.8 °F 62.6 °F 78% 29.64 in 7.0 mi Calm Calm - N/A   Overcast
11:56 AM 70.0 °F 64.0 °F 81% 29.62 in 7.0 mi Variable 3.5 mph - N/A   Overcast
12:56 PM 73.0 °F 64.0 °F 73% 29.62 in 9.0 mi WSW 5.8 mph - N/A   Mostly Cloudy
1:28 PM 75.2 °F 64.4 °F 69% 29.63 in 10.0 mi SW 5.8 mph - N/A   Mostly Cloudy
1:56 PM 77.0 °F 64.0 °F 64% 29.60 in 10.0 mi SSW 6.9 mph - N/A   Mostly Cloudy
2:56 PM 75.0 °F 63.0 °F 66% 29.60 in 10.0 mi SSW 8.1 mph - N/A   Mostly Cloudy
3:43 PM 73.4 °F 64.4 °F 73% 29.63 in 10.0 mi WNW 4.6 mph - N/A   Overcast
3:56 PM 73.9 °F 64.9 °F 73% 29.61 in 10.0 mi NNW 9.2 mph - N/A   Mostly Cloudy
4:24 PM 71.6 °F 66.2 °F 83% 29.63 in 10.0 mi NNW 9.2 mph - N/A   Mostly Cloudy
4:56 PM 75.0 °F 64.9 °F 71% 29.61 in 10.0 mi NNW 11.5 mph - N/A   Mostly Cloudy
5:51 PM 73.4 °F 64.4 °F 73% 29.63 in 10.0 mi NNW 9.2 mph - N/A Thunderstorm Thunderstorm
5:56 PM 72.0 °F 64.0 °F 76% 29.61 in 10.0 mi NNW 9.2 mph - N/A Thunderstorm Thunderstorm
6:56 PM 69.1 °F 66.0 °F 90% 29.61 in 9.0 mi ESE 8.1 mph - 0.07 in Rain , Thunderstorm Light Thunderstorms and Rain
7:29 PM 69.8 °F 66.2 °F 88% 29.66 in 10.0 mi WSW 4.6 mph - 0.00 in   Mostly Cloudy
7:56 PM 70.0 °F 66.0 °F 87% 29.66 in 10.0 mi Calm Calm - 0.00 in   Mostly Cloudy
8:56 PM 69.1 °F 66.0 °F 90% 29.67 in 10.0 mi Calm Calm - 0.00 in   Mostly Cloudy
9:56 PM 66.9 °F 64.0 °F 90% 29.66 in 10.0 mi Calm Calm - N/A   Mostly Cloudy
10:56 PM 66.0 °F 64.0 °F 93% 29.68 in 10.0 mi NE 4.6 mph - N/A   Mostly Cloudy
11:56 PM 64.9 °F 63.0 °F 93% 29.68 in 10.0 mi NNE 4.6 mph - N/A   Scattered Clouds